POLARCUBE (47310 NORAD) Tracking and Keplerian Element Data

This shows tracking and keplerian element data for the satellite.

Feedback or suggestion? Click here.




ElementValue
Catalog47310
NamePOLARCUBE
Epoch Orbit1272
Epoch Day101.75250981
Epoch Year2021
RAAN181.0663
Inclination60.6848
Eccentricity0.0029234
Argument of Perigee11.2721
Mean Anonmoly348.9013
Mean Motion15.21040566
Decay Rate2.039E-05
L11 47310U 21002B 21101.75250981 .00002039 00000-0 10234-3 0 9999
L22 47310 60.6848 181.0663 0029234 11.2721 348.9013 15.21040566 12728

Live tracking and technical data element details for POLARCUBE (NORAD 47310). POLARCUBE can be tracked NOW for your location showing map with azimuth and elevation plus other details from your city location.

Track the satellite on the map from your city or location and see movement details for azimuth, elevation, latitude, longitude, range, height, and movement on the map or in text.







IsCatalogInMostPopularTable: catalog: 47310, numindb: 22
Update: records affected: 1



GetName: 47310 POLARCUBE

Hit Count: updated at: Tue, 13 Apr 2021 04:37:55 GMT